Location: ???????
(55.4362°N, 38.1183°E)
Time: 03:42:21
(UTC+00:00)

NOSS 3-1 (C) - Pass Details

Date: 17 June 2021
Orbit: 724 x 1485 km, 63.4° (Epoch: 20 July)

Event Time Altitude Azimuth Distance (km) Brightness Sun altitude
Exits shadow 22:25:14 13° 204° (SSW) 2,208 4.7 -10.2°
Maximum altitude 22:30:05 56° 129° (SE) 1,063 3.6 -10.1°
Drops below altitude 10° 22:36:28 10° 53° (NE) 2,840 6.8 -9.8°
Sets 22:39:23 0° 50° (NE) 3,921 7.7 -9.7°
